Weather History for Barking Sands, HI

Change the Weather History Date:

Wednesday, March 19, 2014

  Actual Average Record
Temperature  
Mean Temperature 72 °F -  
Max Temperature 78 °F 82 °F 86 °F (1975)
Min Temperature 66 °F 62 °F 58 °F (1958)
Cooling Degree Days 7    
Growing Degree Days 22 (Base 50)    
Moisture  
Dew Point 61 °F    
Average Humidity 70    
Maximum Humidity 84    
Minimum Humidity 50    
Precipitation  
Precipitation 0.00 in - - ()
Sea Level Pressure  
Sea Level Pressure 29.97 in    
Wind  
Wind Speed 5 mph (NNE)    
Max Wind Speed 20 mph    
Max Gust Speed -    
Visibility 10 miles    
Events      
Averages and records for this station are not official NWS values.
T = Trace of Precipitation, MM = Missing Value Source: NWS Daily Summary

Daily Weather History Graph

Daily Weather History Graph

Search for Another Location

Airport:

Trip Planner

Search our weather history database for the weather conditions in past years. The results will help you decide how hot, cold, wet, or windy it might be!

Date:

Astronomy

Mar. 19, 2014 Rise Set
Actual Time 6:43 AM HST 6:49 PM HST
Civil Twilight 6:21 AM HST 7:12 PM HST
Nautical Twilight 5:55 AM HST 7:38 PM HST
Astronomical Twilight 5:29 AM HST 8:04 PM HST
Moon 9:53 PM HST (3/19) 8:40 AM HST (3/19)
Length of Visible Light 12h 50m
Length of Day
12h 06m
Waning Gibbous, 90% of the Moon is Illuminated
Mar 19
Waning Gibbous
Mar 23
Last Quarter
Mar 30
New
Apr 6
First Quarter
Apr 14
Full

Hourly Weather History & Observations

Time (HST) Temp. Dew Point Humidity Pressure Visibility Wind Dir Wind Speed Gust Speed Precip Events Conditions
12:56 AM 69.1 °F 61.0 °F 75% 29.99 in 10.0 mi NNE 3.5 mph - N/A   Overcast
1:56 AM 66.9 °F 62.1 °F 84% 29.97 in 10.0 mi East 3.5 mph - N/A   Mostly Cloudy
2:56 AM 68.0 °F 61.0 °F 78% 29.95 in 10.0 mi ENE 3.5 mph - N/A   Overcast
3:56 AM 66.9 °F 61.0 °F 81% 29.93 in 10.0 mi East 3.5 mph - N/A   Overcast
4:56 AM 66.0 °F 61.0 °F 84% 29.94 in 10.0 mi East 3.5 mph - N/A   Overcast
5:56 AM 66.9 °F 61.0 °F 81% 29.95 in 10.0 mi Calm Calm - N/A   Mostly Cloudy
6:56 AM 66.0 °F 61.0 °F 84% 29.96 in 10.0 mi Calm Calm - N/A   Scattered Clouds
7:56 AM 71.1 °F 61.0 °F 70% 29.98 in 10.0 mi ENE 3.5 mph - N/A   Clear
8:56 AM 75.0 °F 55.0 °F 50% 29.99 in 10.0 mi NNW 6.9 mph - N/A   Clear
9:56 AM 75.9 °F 57.0 °F 52% 30.01 in 10.0 mi NNW 6.9 mph - N/A   Clear
10:56 AM 75.0 °F 59.0 °F 57% 30.00 in 10.0 mi WNW 5.8 mph - N/A   Overcast
11:56 AM 77.0 °F 60.1 °F 56% 29.98 in 10.0 mi NW 8.1 mph - N/A   Partly Cloudy
12:56 PM 75.9 °F 57.9 °F 54% 29.96 in 10.0 mi West 4.6 mph - N/A   Overcast
1:56 PM 78.1 °F 59.0 °F 52% 29.94 in 10.0 mi Calm Calm - N/A   Overcast
2:56 PM 75.9 °F 59.0 °F 56% 29.93 in 10.0 mi Calm Calm - N/A   Overcast
3:56 PM 77.0 °F 61.0 °F 58% 29.93 in 10.0 mi North 9.2 mph - N/A   Overcast
4:56 PM 75.9 °F 61.0 °F 60% 29.93 in 10.0 mi Variable 3.5 mph - N/A   Overcast
5:56 PM 73.0 °F 63.0 °F 71% 29.95 in 10.0 mi North 13.8 mph - N/A   Mostly Cloudy
6:56 PM 72.0 °F 62.1 °F 71% 29.97 in 10.0 mi North 17.3 mph - N/A   Mostly Cloudy
7:56 PM 71.1 °F 63.0 °F 75% 30.00 in 10.0 mi North 19.6 mph - N/A   Overcast
8:56 PM 71.1 °F 64.0 °F 78% 30.01 in 10.0 mi North 16.1 mph - N/A   Overcast
9:56 PM 69.1 °F 63.0 °F 81% 30.01 in 10.0 mi NNE 8.1 mph - N/A   Overcast
10:56 PM 69.1 °F 62.1 °F 78% 30.01 in 10.0 mi NNE 5.8 mph - N/A   Partly Cloudy
11:56 PM 66.9 °F 62.1 °F 84% 30.02 in 10.0 mi NE 3.5 mph - N/A   Mostly Cloudy